モーリー彗星

115P/Maury (2002)

English version
Home page
Updated on November 29, 2003

---------------------------------------------------------------------

・ プロフィール

・ 軌道要素

Epoch 2003 Jan. 1.0 TT = JDT 2452640.5  
T 2002 Dec. 23.87138 TT                                 Muraoka 
q   2.0416571            (2000.0)            P               Q
n   0.11207217     Peri.  119.87585     +0.44926718     +0.89332395
a   4.2606010      Node   176.75564     -0.87353245     +0.44193137
e   0.5208054      Incl.   11.68264     -0.18735011     +0.08166389
P   8.79
From 69 observations 1985-1997, mean residual 0".88.

・ 星図

・ 光度変化

        m1 = 10.5 + 5 logΔ + 15.0 log r

---------------------------------------------------------------------

軌道要素は村岡健治氏の計算によるものです。
星図は StellaNavigator Ver.2.0 for Windows (アストロアーツ 編著 / アスキー出版局刊) で作成したものです。
光度グラフはComet for Windowsで作成したものです。

---------------------------------------------------------------------

Copyright(C) Seiichi Yoshida (comet@aerith.net). All rights reserved.